Location: Houston
(29.7630°N, 95.3630°W)
Time: 08:18:54
(UTC-05:00)

Amateur Radio Satellites - All Passes

Search period start: 01 November 2014 07:48
Search period end: 02 November 2014 06:48
Location: Houston, 29.7630°N, 95.3630°W

Satellite Date Start Highest point End Downlink Frequencies (MHz)
Time Altitude Azimuth
STRAND 1 01 Nov 07:53:11 07:58:12 56° 259° (W) 08:03:15 ?
RS-15 01 Nov 08:04:37 08:15:37 59° 249° (WSW) 08:27:08 29.354 - 29.394 USB, Beacon 29.352 USB
MaSat-1 01 Nov 08:09:43 08:11:45 24° 65° (ENE) 08:13:44 437.345 MHz
JAS-2 01 Nov 08:21:47 08:27:10 21° 296° (WNW) 08:32:25 435.800 - 435.900 CW/SSB, 435.910 FM
PANSAT 01 Nov 08:42:07 08:45:24 27° 200° (SSW) 08:48:41 not established
ISS 01 Nov 08:47:01 08:49:32 20° 127° (SE) 08:52:03 145.800 FM
SO-67 01 Nov 08:56:51 08:59:43 25° 286° (WNW) 09:02:34 435.3500 MHz FM
Oscar 11 01 Nov 09:53:27 09:54:07 10° 93° (E) 09:54:46 145.825 FM, Beacon 2401.500 USB
KITSAT 1 01 Nov 09:54:30 10:01:08 29° 106° (ESE) 10:07:45 435.175 FM
SO-50 01 Nov 09:57:19 09:59:08 12° 107° (ESE) 10:00:59 436.795 FM
HO-68 01 Nov 10:10:32 10:17:42 68° 103° (ESE) 10:24:48 435.675 MHz FM
ISS 01 Nov 10:23:19 10:26:05 24° 320° (NW) 10:28:52 145.800 FM
UKube-1 01 Nov 10:52:02 10:56:21 64° 102° (ESE) 11:00:39 145.840 MHz, 145.915 MHz
ZACube-1 01 Nov 11:03:16 11:06:57 30° 98° (E) 11:10:37 437.345 MHz
Sapphire 01 Nov 11:26:07 11:30:04 20° 56° (ENE) 11:33:59 437.095 MHz 1200 baud AX-25 AFSK
Oscar 11 01 Nov 11:26:19 11:30:26 46° 285° (WNW) 11:34:33 145.825 FM, Beacon 2401.500 USB
SO-50 01 Nov 11:34:54 11:39:11 46° 300° (WNW) 11:43:35 436.795 FM
FUNcube-1 01 Nov 11:45:30 11:49:39 72° 283° (WNW) 11:53:46 145.950 - 145.970 MHz USB
PCSat 01 Nov 11:46:57 11:51:51 34° 60° (ENE) 11:56:43 145.825 MHz
KITSAT 1 01 Nov 11:48:21 11:56:05 49° 300° (WNW) 12:03:52 435.175 FM
HO-68 01 Nov 12:00:05 12:04:40 18° 298° (WNW) 12:09:14 435.675 MHz FM
UOSAT-12 01 Nov 12:13:18 12:17:24 33° 111° (ESE) 12:21:34 437.025 FM, 437.400 FM
ZACube-1 01 Nov 12:40:42 12:43:03 15° 290° (WNW) 12:45:23 437.345 MHz
Oscar 19 01 Nov 12:52:11 12:52:52 10° 65° (ENE) 12:53:33 437.125 CW, 437.150 USB
Sapphire 01 Nov 13:08:30 13:13:37 43° 251° (WSW) 13:18:42 437.095 MHz 1200 baud AX-25 AFSK
PCSat 01 Nov 13:30:45 13:35:00 24° 254° (WSW) 13:39:15 145.825 MHz
AO-27 01 Nov 13:31:40 13:31:55 10° 64° (ENE) 13:32:10 436.795 MHz FM
Oscar 16 01 Nov 13:35:07 13:39:42 33° 72° (ENE) 13:44:16 437.025 USB, Beacon 2401.1428
JAS-1B 01 Nov 13:50:18 13:55:48 44° 72° (ENE) 14:01:09 435.800 - 435.900 CW/SSB
UOSAT-12 01 Nov 13:54:06 13:57:33 21° 306° (NW) 14:01:04 437.025 FM, 437.400 FM
AO-Echo 01 Nov 14:01:30 14:05:44 29° 71° (ENE) 14:10:06 ?
Uribyol 2 01 Nov 14:10:09 14:14:39 30° 71° (ENE) 14:19:09 436.500 FM
ITAMSAT 1 01 Nov 14:18:14 14:22:53 34° 71° (ENE) 14:27:32 435.822 SSB
Saudisat 1A 01 Nov 14:26:12 14:28:45 15° 53° (NE) 14:31:17 436.775 MHz
Oscar 19 01 Nov 14:26:26 14:31:33 71° 258° (WSW) 14:36:40 437.125 CW, 437.150 USB
AO-27 01 Nov 15:05:31 15:10:43 75° 258° (WSW) 15:15:57 436.795 MHz FM
Oscar 16 01 Nov 15:15:09 15:19:00 21° 264° (W) 15:22:52 437.025 USB, Beacon 2401.1428
Gurwin Techsat 1B 01 Nov 15:27:26 15:32:45 89° 77° (ENE) 15:38:05 435.225 FM
TMSAT-1 01 Nov 15:33:04 15:38:20 74° 76° (ENE) 15:43:38 436.925 FM
AO-Echo 01 Nov 15:40:31 15:44:25 23° 264° (W) 15:48:25 ?
JAS-1B 01 Nov 15:43:08 15:46:39 16° 264° (W) 15:50:06 435.800 - 435.900 CW/SSB
AO-7 01 Nov 15:48:44 15:55:46 32° 64° (ENE) 16:02:49 29.400 - 29.500 MHz
Uribyol 2 01 Nov 15:49:50 15:54:01 24° 263° (W) 15:58:14 436.500 FM
Uosat F 01 Nov 15:56:02 15:58:30 14° 66° (ENE) 16:00:58 435.120 FM
ITAMSAT 1 01 Nov 15:58:25 16:02:20 21° 264° (W) 16:06:16 435.822 SSB
Saudisat 1A 01 Nov 16:04:17 16:08:28 43° 247° (WSW) 16:12:38 436.775 MHz
JAS-2 01 Nov 16:43:33 16:46:50 15° 61° (ENE) 16:50:18 435.800 - 435.900 CW/SSB, 435.910 FM
ISS 01 Nov 16:56:33 16:59:05 20° 38° (NE) 17:01:36 145.800 FM
Uosat F 01 Nov 17:31:54 17:36:46 52° 259° (W) 17:41:41 435.120 FM
AO-7 01 Nov 17:40:23 17:48:11 46° 258° (WSW) 17:56:03 29.400 - 29.500 MHz
Hamsat 01 Nov 17:53:30 17:57:03 28° 73° (ENE) 18:00:36 145.90 MHz
OPAL 01 Nov 18:11:37 18:16:12 37° 101° (E) 18:20:46 ?
JAS-2 01 Nov 18:24:47 18:30:49 75° 258° (WSW) 18:37:45 435.800 - 435.900 CW/SSB, 435.910 FM
ISS 01 Nov 18:32:53 18:35:44 27° 232° (SW) 18:38:36 145.800 FM
AO-40 01 Nov 19:04:44 22:05:51 48° 194° (SSW) 03:00:25 Beacon 2401.320
Oscar 10/S400 01 Nov 19:05:42 19:31:40 78° 192° (SSW) 04:34:24 145.825 - 145.975 CW/USB, Beacon 145.810 USB
SO-67 01 Nov 19:23:02 19:26:08 32° 75° (ENE) 19:29:14 435.3500 MHz FM
Hamsat 01 Nov 19:30:18 19:32:57 16° 265° (W) 19:35:36 145.90 MHz
KITSAT 1 01 Nov 19:48:33 19:55:29 30° 55° (NE) 20:02:21 435.175 FM
OPAL 01 Nov 19:51:25 19:54:45 18° 294° (WNW) 19:58:05 ?
RS-15 01 Nov 20:09:20 20:19:10 38° 107° (ESE) 20:28:47 29.354 - 29.394 USB, Beacon 29.352 USB
STRAND 1 01 Nov 20:09:50 20:14:59 83° 103° (ESE) 20:20:06 ?
SO-50 01 Nov 20:12:10 20:16:30 31° 57° (ENE) 20:20:50 436.795 FM
HO-68 01 Nov 20:33:29 20:39:17 28° 66° (ENE) 20:45:05 435.675 MHz FM
MaSat-1 01 Nov 21:37:37 21:41:24 39° 109° (ESE) 21:44:53 437.345 MHz
UKube-1 01 Nov 21:42:02 21:45:36 25° 71° (ENE) 21:49:12 145.840 MHz, 145.915 MHz
KITSAT 1 01 Nov 21:43:20 21:51:01 50° 251° (WSW) 21:58:41 435.175 FM
SO-50 01 Nov 21:53:04 21:56:51 23° 250° (WSW) 22:00:38 436.795 FM
ZACube-1 01 Nov 21:55:16 21:57:33 14° 69° (ENE) 21:59:49 437.345 MHz
Oscar 11 01 Nov 22:14:58 22:19:13 61° 76° (ENE) 22:23:28 145.825 FM, Beacon 2401.500 USB
HO-68 01 Nov 22:19:50 22:26:36 45° 259° (W) 22:33:25 435.675 MHz FM
RS-15 01 Nov 22:20:33 22:31:04 49° 303° (WNW) 22:41:33 29.354 - 29.394 USB, Beacon 29.352 USB
UOSAT-12 01 Nov 22:28:02 22:32:43 69° 62° (ENE) 22:37:17 437.025 FM, 437.400 FM
FUNcube-1 01 Nov 22:35:31 22:39:48 42° 75° (ENE) 22:44:00 145.950 - 145.970 MHz USB
MaSat-1 01 Nov 23:15:53 23:16:45 11° 298° (WNW) 23:17:36 437.345 MHz
UKube-1 01 Nov 23:18:30 23:21:41 20° 263° (W) 23:24:53 145.840 MHz, 145.915 MHz
ZACube-1 01 Nov 23:29:16 23:33:33 41° 261° (W) 23:37:47 437.345 MHz
FUNcube-1 02 Nov 00:14:13 00:16:14 13° 266° (W) 00:18:15 145.950 - 145.970 MHz USB
RS-15 02 Nov 00:44:16 00:46:57 11° 331° (NNW) 00:49:40 29.354 - 29.394 USB, Beacon 29.352 USB
PANSAT 02 Nov 01:38:44 01:40:10 12° 154° (SSE) 01:41:36 not established
JAS-1B 02 Nov 01:39:13 01:45:14 23° 98° (E) 01:51:53 435.800 - 435.900 CW/SSB
Oscar 16 02 Nov 01:53:34 01:57:11 19° 96° (E) 01:00:47 437.025 USB, Beacon 2401.1428
Sapphire 02 Nov 01:00:41 01:05:58 59° 111° (ESE) 01:11:17 437.095 MHz 1200 baud AX-25 AFSK
AO-Echo 02 Nov 01:15:42 01:18:58 16° 94° (E) 01:22:10 ?
PCSat 02 Nov 01:22:01 01:27:25 78° 294° (WNW) 01:32:51 145.825 MHz
Uribyol 2 02 Nov 01:29:49 01:33:11 17° 95° (E) 01:36:32 436.500 FM
ITAMSAT 1 02 Nov 01:37:53 01:41:39 20° 96° (E) 01:45:23 435.822 SSB
Oscar 19 02 Nov 01:44:09 01:49:15 69° 102° (ESE) 01:54:21 437.125 CW, 437.150 USB
PANSAT 02 Nov 02:16:18 02:19:53 37° 164° (SSE) 02:23:27 not established
AO-27 02 Nov 02:24:47 02:29:59 67° 102° (ESE) 02:35:08 436.795 MHz FM
JAS-1B 02 Nov 02:28:14 02:35:43 63° 286° (WNW) 02:44:34 435.800 - 435.900 CW/SSB
Oscar 16 02 Nov 02:31:54 02:36:32 36° 288° (WNW) 02:41:11 437.025 USB, Beacon 2401.1428
Sapphire 02 Nov 02:46:40 02:49:44 15° 306° (NW) 02:52:50 437.095 MHz 1200 baud AX-25 AFSK
Gurwin Techsat 1B 02 Nov 02:49:56 02:55:11 61° 101° (E) 03:00:24 435.225 FM
AO-Echo 02 Nov 02:52:49 02:57:51 45° 287° (WNW) 03:02:46 ?
TMSAT-1 02 Nov 02:55:15 03:00:22 49° 100° (E) 03:05:27 436.925 FM
AO-7 02 Nov 02:59:35 03:03:02 13° 94° (E) 03:06:29 29.400 - 29.500 MHz
Uribyol 2 02 Nov 03:07:54 03:12:44 41° 288° (WNW) 03:17:32 436.500 FM
ITAMSAT 1 02 Nov 03:16:26 03:21:09 36° 288° (WNW) 03:25:50 435.822 SSB
Oscar 19 02 Nov 03:27:00 03:27:56 11° 295° (WNW) 03:28:53 437.125 CW, 437.150 USB
Saudisat 1A 02 Nov 03:27:28 03:29:46 14° 108° (ESE) 03:32:04 436.775 MHz
PANSAT 02 Nov 03:56:01 03:59:51 71° 176° (S) 04:03:41 not established
AO-27 02 Nov 04:07:19 04:08:50 11° 295° (WNW) 04:10:22 436.795 MHz FM
RS-15 02 Nov 04:17:20 04:26:20 27° 47° (NE) 04:35:33 29.354 - 29.394 USB, Beacon 29.352 USB
OPAL 02 Nov 04:20:47 04:25:24 35° 70° (ENE) 04:29:58 ?
Gurwin Techsat 1B 02 Nov 04:32:15 04:34:33 13° 294° (WNW) 04:36:51 435.225 FM
TMSAT-1 02 Nov 04:36:42 04:39:49 16° 293° (WNW) 04:42:55 436.925 FM
JAS-2 02 Nov 04:41:33 04:47:48 26° 94° (E) 04:53:43 435.800 - 435.900 CW/SSB, 435.910 FM
Uosat F 02 Nov 04:45:33 04:50:36 81° 103° (ESE) 04:55:37 435.120 FM
AO-7 02 Nov 04:48:07 04:56:30 90° 107° (ESE) 05:04:52 29.400 - 29.500 MHz
Saudisat 1A 02 Nov 05:04:50 05:08:56 39° 301° (WNW) 05:13:03 436.775 MHz
PANSAT 02 Nov 05:36:07 05:39:55 61° 189° (S) 05:43:43 not established
OPAL 02 Nov 06:00:33 06:04:15 20° 262° (W) 06:07:57 ?
STRAND 1 02 Nov 06:19:39 06:24:42 64° 75° (ENE) 06:29:48 ?
Hamsat 02 Nov 06:20:01 06:24:11 59° 284° (WNW) 06:28:23 145.90 MHz
JAS-2 02 Nov 06:25:26 06:32:58 52° 288° (WNW) 06:40:04 435.800 - 435.900 CW/SSB, 435.910 FM
